RH
17 17 26 24 19 20 19 19 19 20 23 35 22 18 15 14 15 16 18 31 64 45 44 40 32 29 38 30 16 15 13 12 12 13 21 26 71 79 70 59 21 32 43
29 21 18 29 28 19 20 20 19 20 22 23 20 17 13 15 20 21 17 20 29 34 36 35 31 34 36 30 14 13 11 14 13 12 17 23 32 80 68 81 69 60 57
31 29 22 20 26 29 19 21 23 19 20 20 18 14 15 18 20 23 23 23 27 30 31 34 29 42 37 26 16 11 12 13 13 15 22 30 32 48 70 69 75 68 67
36 40 32 23 19 25 30 19 25 24 20 19 16 17 28 31 26 23 24 26 28 31 35 34 28 48 41 31 16 12 13 17 17 16 19 33 42 49 46 55 54 59 60
29 28 34 38 29 20 35 33 20 24 25 18 15 24 29 42 52 36 26 28 30 40 41 31 57 40 42 29 15 12 18 21 20 16 16 19 36 47 72 60 60 78 53
28 28 25 29 40 27 20 28 38 21 20 25 17 21 27 34 46 59 34 32 44 22 37 31 68 40 38 27 18 14 11 18 24 26 17 18 21 41 59 67 73 63 44
40 37 37 23 32 42 32 21 27 38 28 24 25 20 23 33 37 64 49 58 21 19 30 77 36 41 38 30 19 17 12 15 18 28 30 29 21 21 39 53 68 100 77
43 44 41 40 26 19 38 34 26 28 38 35 26 26 27 30 33 64 78 60 30 25 50 46 36 41 38 31 21 20 13 14 15 22 29 17 16 17 25 57 79 100 100
38 48 48 44 41 28 15 19 23 23 28 45 55 41 28 25 31 54 83 68 44 26 24 42 36 40 41 32 23 22 16 11 13 17 20 15 12 13 18 48 64 100 100
19 40 50 50 46 42 32 14 12 14 20 38 68 79 54 42 57 72 85 71 51 29 20 38 41 35 39 35 23 22 19 14 24 31 22 16 13 11 14 29 46 64 84
9 18 43 51 49 46 42 38 20 14 15 23 31 56 84 78 69 73 78 74 53 37 17 25 41 36 37 42 25 21 15 16 34 23 23 16 16 15 16 15 14 14 24
11 12 23 40 52 52 52 50 44 24 17 19 26 33 41 54 64 65 72 75 63 40 16 20 37 38 38 45 31 19 19 36 30 26 19 17 16 18 18 17 20 22 20
12 12 12 20 42 55 53 54 51 47 37 20 18 23 35 38 42 42 46 52 47 33 17 26 37 39 42 44 36 26 22 24 33 29 19 14 16 18 20 18 19 20 23
11 11 12 14 28 49 55 55 55 49 48 41 22 23 24 30 33 30 30 31 32 22 33 48 44 40 43 42 26 24 26 44 38 15 15 14 16 19 20 19 20 22 23
12 12 12 12 16 30 47 54 54 52 56 69 46 25 22 25 27 28 27 25 21 29 49 53 49 46 41 35 28 44 71 47 28 26 24 16 16 17 19 18 18 20 23
18 21 22 20 17 17 24 40 51 70 86 100 81 53 48 40 35 33 32 31 35 41 46 47 45 41 34 27 49 70 67 40 27 30 34 26 18 17 19 20 21 22 22
22 21 19 21 26 38 45 47 68 100 100 100 100 98 70 50 46 44 42 41 40 39 37 37 32 26 31 39 67 64 40 31 26 30 47 36 16 17 20 21 24 25 25
26 29 29 27 24 24 24 26 30 38 47 52 51 47 45 43 41 37 32 31 30 26 22 21 23 30 36 37 44 41 36 29 25 51 60 27 19 18 20 25 27 27 28
32 29 29 33 34 34 34 34 33 33 32 31 31 30 30 29 27 26 25 23 24 28 35 40 41 40 38 38 37 33 27 26 49 71 48 24 21 24 28 32 32 29 27
42 35 33 34 35 37 37 37 35 34 36 37 38 40 40 36 34 32 34 35 38 40 39 36 37 46 48 44 37 32 35 54 81 84 54 33 30 31 34 36 32 26 27
67 59 46 40 40 37 34 36 40 41 41 41 44 43 44 47 50 53 59 60 64 68 66 61 63 64 66 65 63 92 100 100 98 82 53 34 35 38 36 35 30 27 23
56 56 53 48 44 41 40 39 37 38 42 48 52 54 57 54 50 54 56 59 65 65 62 59 63 77 79 89 95 94 79 70 63 49 38 38 39 38 38 35 30 28 29
48 44 40 39 44 54 50 46 45 44 44 41 42 48 52 57 57 55 55 54 54 58 62 75 77 73 72 69 61 54 46 43 47 42 41 43 42 39 36 32 27 30 25
45 43 36 34 38 48 49 48 46 46 46 47 51 54 56 54 53 52 51 52 55 58 61 62 62 66 62 52 48 44 45 46 48 50 45 44 40 37 32 29 26 22 27
48 44 34 28 34 50 51 50 52 51 48 49 48 43 42 46 49 52 54 56 62 64 65 65 61 58 53 52 54 52 51 49 46 44 45 39 34 31 26 25 25 27 34
43 41 33 28 30 33 42 48 52 54 51 46 43 40 42 43 46 48 53 57 61 61 57 54 54 56 56 56 54 53 47 42 36 31 38 36 28 24 24 27 26 33 44
Wind_Speed
34 32 28 31 29 30 27 27 27 25 23 23 22 19 18 17 17 18 18 17 17 21 23 28 33 33 36 40 37 36 38 35 33 36 31 32 29 24 21 20 7 4 2
35 31 31 30 34 33 32 29 29 27 27 27 25 22 21 20 18 17 19 20 20 23 26 31 32 33 35 40 33 34 31 28 31 28 30 31 26 19 15 17 11 6 6
35 34 33 36 35 35 36 33 31 31 32 30 27 24 22 20 19 18 19 21 22 25 27 29 31 31 32 36 31 28 30 32 33 33 34 34 32 26 17 14 14 11 11
37 37 37 40 38 36 38 38 34 34 34 34 31 27 24 19 20 20 20 20 21 22 25 28 30 29 32 34 27 26 31 30 29 32 33 34 30 33 25 23 20 19 17
34 32 37 41 39 38 39 42 41 39 36 36 35 31 27 22 21 22 21 22 22 25 28 28 29 27 32 33 24 24 21 24 25 26 29 32 31 26 28 26 25 27 27
36 34 30 35 41 43 43 42 43 43 40 40 39 36 31 28 26 25 24 24 27 27 26 27 25 27 31 32 22 20 20 22 29 29 29 32 36 32 25 24 28 29 30
41 36 34 33 39 42 42 43 43 43 43 43 42 40 36 33 30 28 27 29 27 27 26 24 24 27 32 32 26 23 22 21 27 30 32 31 33 32 31 28 27 27 31
46 44 41 39 36 37 44 45 45 45 44 45 43 42 40 36 34 32 32 30 29 28 26 26 25 26 29 32 28 25 23 22 26 24 27 27 29 31 27 27 25 20 27
52 49 46 46 42 38 36 41 44 46 46 45 43 43 41 39 37 36 34 33 31 30 29 30 30 28 29 31 30 29 24 26 27 27 26 24 25 27 23 19 23 21 19
55 56 52 49 47 42 35 33 36 41 47 47 46 44 41 40 39 38 37 37 35 34 33 34 33 33 32 33 31 29 31 27 26 27 27 27 25 26 27 26 19 13 19
52 56 56 53 50 46 40 34 33 37 39 45 47 47 46 44 42 42 41 42 41 39 37 38 38 38 37 36 33 29 30 26 26 27 30 28 27 29 36 39 39 31 22
48 51 57 56 52 48 44 41 38 37 40 43 45 47 47 49 48 46 44 45 45 44 42 40 41 41 40 40 38 34 30 28 29 29 30 29 26 28 30 35 41 48 54
48 52 53 53 54 52 50 47 44 42 41 42 44 47 49 50 50 50 48 46 47 47 44 43 44 43 43 44 44 37 33 31 33 31 31 30 28 31 33 36 39 42 47
46 49 51 51 53 55 53 51 50 49 46 42 42 44 45 50 51 48 46 47 47 45 44 46 47 46 48 47 45 39 36 36 37 35 34 33 30 33 38 40 41 44 47
45 46 50 53 53 54 56 55 55 54 52 53 50 46 44 43 43 43 45 46 45 44 45 49 52 52 50 50 45 40 39 39 40 39 39 38 36 37 43 46 49 49 52
43 41 43 46 49 51 55 56 55 55 54 52 50 47 45 45 45 44 44 45 46 48 50 53 54 56 55 51 43 41 42 42 42 43 43 42 42 43 44 49 51 55 58
46 44 42 41 45 49 53 56 57 57 57 54 52 51 51 51 52 50 50 51 53 54 56 59 60 57 51 47 45 44 44 45 46 46 47 46 47 49 50 53 54 57 64
52 48 45 45 44 43 45 50 54 57 60 61 62 60 61 61 59 58 58 59 61 61 57 53 50 47 46 45 46 48 48 48 49 50 50 51 52 52 57 60 61 62 69
57 57 55 51 48 47 45 44 45 46 47 48 48 49 49 49 49 50 49 48 45 44 43 43 43 43 43 45 48 50 50 51 53 54 54 55 57 59 63 66 67 68 73
64 64 63 61 59 56 54 52 52 51 50 49 48 48 48 48 48 48 48 47 47 48 49 49 49 49 50 51 51 53 55 56 57 58 58 62 64 65 69 73 74 75 76
69 69 69 68 67 66 65 63 61 59 58 57 57 56 55 54 53 55 56 56 56 56 57 56 57 57 56 56 57 59 60 60 61 63 67 70 70 74 76 80 80 81 81
79 78 76 74 74 73 70 68 67 65 65 65 65 64 62 62 61 60 61 62 63 62 61 60 60 60 61 62 64 65 66 67 68 71 74 75 78 80 82 82 85 86 84
86 86 83 82 81 76 74 73 73 73 72 72 71 70 69 68 67 67 66 66 66 66 66 66 66 66 67 68 70 71 73 74 76 79 80 82 84 84 85 87 86 85 83
92 91 87 82 78 78 79 80 80 79 77 76 75 75 74 73 72 71 72 71 71 72 72 73 73 74 75 75 76 77 79 81 82 83 85 86 87 89 90 88 89 86 82
96 94 91 86 81 83 84 84 83 82 83 81 79 78 78 78 78 77 76 76 75 75 76 77 78 80 81 82 83 85 86 86 87 87 89 91 91 91 90 88 87 80 74
101 99 96 93 91 90 91 88 88 89 89 86 85 82 82 81 82 81 81 80 79 79 81 82 81 81 82 84 86 87 89 90 91 92 92 93 93 94 91 87 84 84 69
Wind_Direction
219 219 221 227 226 228 230 230 231 230 229 228 235 245 257 268 276 282 289 297 296 308 319 327 332 335 341 346 346 350 351 356 3 359 352 350 358 0 22 30 8 55 22
232 226 220 229 233 230 232 232 235 236 233 235 236 243 259 267 275 286 289 295 303 311 316 322 327 333 340 344 348 350 352 4 3 2 356 359 355 2 9 16 22 17 313
233 232 223 226 232 236 236 234 237 237 238 240 244 251 258 265 276 286 292 296 301 307 314 317 321 328 338 342 345 348 353 359 12 13 2 359 358 353 343 332 326 328 325
234 233 232 228 227 231 239 239 237 239 240 243 245 250 258 265 273 281 284 291 297 305 309 312 317 324 334 339 339 338 341 353 5 13 9 8 1 1 345 328 318 310 307
235 238 238 238 236 228 234 238 239 239 241 242 246 251 257 264 272 275 279 283 292 298 300 306 314 322 329 334 334 343 340 348 359 3 2 3 8 356 1 347 331 307 307
239 242 248 246 244 237 232 232 238 242 243 245 247 249 255 263 270 276 278 281 290 294 297 301 308 317 323 330 327 331 333 337 343 349 2 360 360 360 355 344 343 331 316
239 240 246 248 245 243 244 238 236 239 243 246 249 251 254 260 266 271 271 281 286 288 289 296 304 312 315 323 320 321 326 334 336 346 350 359 356 351 344 342 344 326 321
238 240 242 246 246 246 244 243 242 238 240 245 248 251 255 258 261 265 269 277 284 284 284 291 296 303 308 317 312 315 313 313 320 334 341 343 349 348 343 334 346 339 342
237 239 239 243 247 246 245 246 247 247 242 244 249 252 254 256 258 262 267 274 281 281 279 284 289 296 305 308 303 303 303 300 305 317 325 335 343 344 345 339 339 326 334
237 237 236 241 244 246 248 249 250 252 248 244 247 251 252 253 255 259 264 272 274 276 274 277 284 290 297 305 299 297 299 303 308 316 322 326 337 339 343 346 344 308 314
241 239 238 239 242 245 247 248 249 250 251 249 247 247 250 252 253 257 261 268 271 274 274 275 282 286 293 302 301 291 292 299 306 310 317 324 338 344 344 345 343 345 318
239 239 239 238 240 242 244 243 243 245 248 250 250 250 251 251 253 255 259 265 269 272 274 273 277 284 294 299 302 286 288 297 302 305 308 316 327 335 338 341 341 338 337
238 237 237 237 238 238 239 243 246 248 252 251 251 251 249 250 252 253 256 261 267 271 272 272 275 283 290 293 299 285 285 291 297 299 304 308 314 320 325 330 332 334 332
240 240 238 238 238 239 241 243 245 246 249 253 252 252 252 252 254 257 261 262 265 268 269 272 276 284 288 293 292 281 282 287 292 292 298 300 306 311 313 317 321 325 325
241 242 241 238 237 239 241 241 244 246 248 251 251 254 256 257 257 257 257 258 259 260 266 272 277 282 285 288 284 279 283 286 289 291 295 298 303 305 308 313 315 321 323
242 243 244 245 245 244 244 244 247 250 251 251 252 254 255 256 256 256 258 259 262 265 267 271 275 278 283 285 273 273 281 284 287 290 294 297 298 301 303 307 312 315 318
240 241 242 241 242 244 244 245 244 245 247 250 252 254 256 257 259 260 262 265 266 268 270 271 274 277 276 273 269 274 280 282 285 288 291 295 297 300 301 303 307 310 315
239 238 239 241 241 241 242 245 248 250 251 254 256 260 260 259 260 262 264 265 266 268 269 270 270 271 270 267 268 275 280 282 284 287 290 294 296 297 299 302 307 310 311
242 242 239 238 240 240 240 240 241 242 245 248 251 253 255 257 258 259 261 263 265 266 266 268 269 269 267 268 271 275 278 280 283 286 291 295 296 297 299 301 304 307 309
242 242 243 243 243 242 242 243 245 247 248 250 253 255 258 261 263 266 266 267 267 269 269 270 272 274 274 274 275 276 279 280 283 286 291 293 295 297 298 301 303 306 308
241 242 244 246 246 246 247 247 247 250 253 255 257 259 261 263 265 267 268 269 271 273 273 273 274 274 275 276 277 279 279 280 282 285 289 293 296 296 298 299 303 306 309
238 241 243 245 248 249 250 251 251 252 254 256 258 259 261 262 263 264 264 265 266 268 270 271 271 272 272 273 274 277 280 282 284 288 290 292 293 296 297 302 303 306 310
239 240 241 243 246 248 250 252 254 255 256 257 258 259 260 262 264 265 266 266 267 269 270 271 271 271 272 274 276 278 281 283 285 286 288 290 293 295 299 300 304 305 305
238 241 242 243 244 247 248 249 250 251 252 253 255 257 259 261 263 264 266 267 267 268 269 270 271 272 274 275 277 279 280 282 284 287 289 291 294 294 298 302 299 302 301
240 243 244 242 242 244 246 249 250 252 254 254 255 257 258 260 261 263 264 265 266 267 269 270 271 273 275 277 279 280 281 283 285 287 289 290 293 295 295 297 298 298 299
242 242 243 245 246 246 246 247 249 252 255 256 257 258 259 260 261 263 264 266 267 269 270 271 272 273 275 276 277 280 281 282 284 286 288 291 294 294 293 294 296 298 291